Brodnax, VA

3:38 PM EST on December 07, 2016 (GMT -0500)
Mecklenburg-Brunswick Regional

Weather History for KAVC - March, 2013

Change the Weather History Date:

Monday, March 4, 2013

  Actual Average (KEMV) Record (KEMV)
Temperature  
Mean Temperature 36 °F -  
Max Temperature 48 °F 58 °F 84 °F (2004)
Min Temperature 24 °F 35 °F 10 °F (2014)
Degree Days  
Heating Degree Days 29    
Moisture  
Dew Point 17 °F    
Average Humidity 51    
Maximum Humidity 74    
Minimum Humidity 27    
Precipitation  
Precipitation 0.00 in - - ()
Sea Level Pressure  
Sea Level Pressure 30.06 in    
Wind  
Wind Speed 4 mph (WNW)    
Max Wind Speed 12 mph    
Max Gust Speed 20 mph    
Visibility 10 miles    
Events      
Averages and records for this station are not official NWS values.
T = Trace of Precipitation, MM = Missing Value Source: NWS Daily Summary

Daily Weather History Graph

Daily Weather History Graph

Search for Another Location

Airport or City:

Trip Planner

Search our weather history database for the weather conditions in past years. The results will help you decide how hot, cold, wet, or windy it might be!

Date:

Astronomy

Mar. 04, 2013 Rise Set
Actual Time 6:38 AM EST 6:09 PM EST
Civil Twilight 6:12 AM EST 6:35 PM EST
Nautical Twilight 5:42 AM EST 7:05 PM EST
Astronomical Twilight 5:12 AM EST 7:35 PM EST
Moon 12:39 AM EST (3/4) 10:56 AM EST (3/4)
Length of Visible Light 12h 23m
Length of Day
11h 31m
Waning Gibbous, 52% of the Moon is Illuminated
Mar 4
Waning Gibbous
Mar 4
Last Quarter
Mar 11
New
Mar 19
First Quarter
Mar 27
Full

Hourly Weather History & Observations

Time (EST) Temp. Windchill Dew Point Humidity Pressure Visibility Wind Dir Wind Speed Gust Speed Precip Events Conditions
12:15 AM 28.4 °F 23.3 °F 17.6 °F 64% 30.00 in 10.0 mi WNW 4.6 mph - N/A   Mostly Cloudy
12:35 AM 28.4 °F 24.6 °F 17.6 °F 64% 30.00 in 10.0 mi NW 3.5 mph - N/A   Mostly Cloudy
12:55 AM 28.4 °F 24.6 °F 17.6 °F 64% 30.00 in 10.0 mi NW 3.5 mph - N/A   Overcast
1:15 AM 30.2 °F 26.7 °F 17.6 °F 60% 30.00 in 10.0 mi NW 3.5 mph - N/A   Overcast
1:35 AM 30.2 °F 26.7 °F 17.6 °F 60% 30.00 in 10.0 mi NW 3.5 mph - N/A   Overcast
1:55 AM 30.2 °F 25.4 °F 17.6 °F 60% 30.00 in 10.0 mi WNW 4.6 mph - N/A   Overcast
2:15 AM 28.4 °F 23.3 °F 17.6 °F 64% 30.00 in 10.0 mi NW 4.6 mph - N/A   Overcast
2:55 AM 28.4 °F 22.2 °F 15.8 °F 59% 30.01 in 10.0 mi NW 5.8 mph - N/A   Overcast
3:15 AM 28.4 °F 23.3 °F 15.8 °F 59% 30.01 in 10.0 mi NW 4.6 mph - N/A   Overcast
3:35 AM 28.4 °F 23.3 °F 15.8 °F 59% 30.02 in 10.0 mi NW 4.6 mph - N/A   Overcast
4:15 AM 28.4 °F 23.3 °F 15.8 °F 59% 30.03 in 10.0 mi WNW 4.6 mph - N/A   Overcast
4:35 AM 28.4 °F 24.6 °F 15.8 °F 59% 30.03 in 10.0 mi NW 3.5 mph - N/A   Overcast
4:55 AM 26.6 °F - 15.8 °F 64% 30.04 in 10.0 mi Calm Calm - N/A   Scattered Clouds
5:15 AM 26.6 °F - 15.8 °F 64% 30.05 in 10.0 mi Calm Calm - N/A   Clear
5:35 AM 26.6 °F - 15.8 °F 64% 30.05 in 10.0 mi Calm Calm - N/A   Clear
5:55 AM 26.6 °F - 15.8 °F 64% 30.06 in 10.0 mi Calm Calm - N/A   Clear
6:15 AM 24.8 °F 20.5 °F 15.8 °F 69% 30.06 in 10.0 mi WNW 3.5 mph - N/A   Clear
6:35 AM 24.8 °F - 15.8 °F 69% 30.07 in 10.0 mi Calm Calm - N/A   Clear
7:15 AM 26.6 °F 22.6 °F 15.8 °F 64% 30.09 in 10.0 mi West 3.5 mph - N/A   Clear
7:35 AM 26.6 °F 21.2 °F 15.8 °F 64% 30.10 in 10.0 mi West 4.6 mph - N/A   Clear
7:55 AM 28.4 °F 23.3 °F 15.8 °F 59% 30.11 in 10.0 mi West 4.6 mph - N/A   Clear
8:15 AM 28.4 °F 23.3 °F 15.8 °F 59% 30.11 in 10.0 mi WNW 4.6 mph - N/A   Clear
8:55 AM 32.0 °F 28.7 °F 15.8 °F 51% 30.11 in 10.0 mi WNW 3.5 mph - N/A   Clear
9:15 AM 33.8 °F 27.0 °F 15.8 °F 48% 30.11 in 10.0 mi NW 8.1 mph - N/A   Clear
9:35 AM 33.8 °F 25.3 °F 15.8 °F 48% 30.11 in 10.0 mi WNW 11.5 mph - N/A   Clear
9:55 AM 35.6 °F 30.7 °F 15.8 °F 44% 30.12 in 10.0 mi WNW 5.8 mph - N/A   Clear
10:15 AM 35.6 °F 29.9 °F 15.8 °F 44% 30.11 in 10.0 mi NW 6.9 mph - N/A   Clear
10:35 AM 37.4 °F 30.3 °F 15.8 °F 41% 30.11 in 10.0 mi West 10.4 mph - N/A   Clear
10:55 AM 37.4 °F 32.1 °F 15.8 °F 41% 30.11 in 10.0 mi West 6.9 mph - N/A   Clear
11:15 AM 37.4 °F 32.1 °F 15.8 °F 41% 30.10 in 10.0 mi NW 6.9 mph 16.1 mph N/A   Clear
11:35 AM 39.2 °F 34.2 °F 15.8 °F 39% 30.10 in 10.0 mi WNW 6.9 mph - N/A   Clear
11:55 AM 39.2 °F 33.0 °F 15.8 °F 39% 30.10 in 10.0 mi West 9.2 mph - N/A   Clear
12:15 PM 41.0 °F 35.8 °F 15.8 °F 36% 30.09 in 10.0 mi WNW 8.1 mph - N/A   Clear
12:35 PM 42.8 °F 39.3 °F 15.8 °F 34% 30.08 in 10.0 mi WNW 5.8 mph - N/A   Clear
12:55 PM 42.8 °F 38.6 °F 17.6 °F 36% 30.07 in 10.0 mi WNW 6.9 mph 16.1 mph N/A   Clear
1:15 PM 44.6 °F 40.2 °F 17.6 °F 34% 30.06 in 10.0 mi NW 8.1 mph - N/A   Clear
1:35 PM 44.6 °F 39.7 °F 15.8 °F 31% 30.05 in 10.0 mi NW 9.2 mph 19.6 mph N/A   Clear
1:55 PM 46.4 °F 41.1 °F 15.8 °F 29% 30.05 in 10.0 mi WSW 11.5 mph 19.6 mph N/A   Clear
2:15 PM 46.4 °F 43.5 °F 15.8 °F 29% 30.05 in 10.0 mi WNW 5.8 mph - N/A   Clear
2:35 PM 46.4 °F 42.9 °F 17.6 °F 32% 30.04 in 10.0 mi WNW 6.9 mph - N/A   Clear
2:55 PM 46.4 °F 41.1 °F 17.6 °F 32% 30.04 in 10.0 mi WSW 11.5 mph 19.6 mph N/A   Clear
3:15 PM 48.2 °F - 15.8 °F 27% 30.03 in 10.0 mi West 5.8 mph - N/A   Clear
3:35 PM 48.2 °F - 17.6 °F 30% 30.03 in 10.0 mi NW 6.9 mph - N/A   Clear
3:55 PM 48.2 °F - 17.6 °F 30% 30.03 in 10.0 mi WNW 9.2 mph - N/A   Clear
4:15 PM 48.2 °F - 17.6 °F 30% 30.03 in 10.0 mi NW 5.8 mph 16.1 mph N/A   Clear
4:35 PM 48.2 °F - 15.8 °F 27% 30.03 in 10.0 mi WNW 5.8 mph - N/A   Clear
4:55 PM 48.2 °F - 17.6 °F 30% 30.03 in 10.0 mi West 5.8 mph - N/A   Clear
5:15 PM 46.4 °F 42.9 °F 17.6 °F 32% 30.04 in 10.0 mi West 6.9 mph - N/A   Clear
5:35 PM 46.4 °F 45.2 °F 17.6 °F 32% 30.05 in 10.0 mi West 3.5 mph - N/A   Clear
5:55 PM 46.4 °F 43.5 °F 17.6 °F 32% 30.05 in 10.0 mi WSW 5.8 mph - N/A   Clear
6:35 PM 42.8 °F - 15.8 °F 34% 30.06 in 10.0 mi Calm Calm - N/A   Clear
6:55 PM 41.0 °F - 17.6 °F 39% 30.07 in 10.0 mi Calm Calm - N/A   Clear
7:15 PM 35.6 °F - 19.4 °F 52% 30.07 in 10.0 mi Calm Calm - N/A   Clear
7:35 PM 35.6 °F - 19.4 °F 52% 30.07 in 10.0 mi Calm Calm - N/A   Clear
7:55 PM 32.0 °F - 19.4 °F 60% 30.07 in 10.0 mi Calm Calm - N/A   Clear
8:15 PM 32.0 °F - 21.2 °F 64% 30.07 in 10.0 mi Calm Calm - N/A   Clear
8:35 PM 30.2 °F - 19.4 °F 64% 30.08 in 10.0 mi Calm Calm - N/A   Clear
8:55 PM 30.2 °F - 19.4 °F 64% 30.08 in 10.0 mi Calm Calm - N/A   Clear
9:35 PM 28.4 °F - 21.2 °F 74% 30.09 in 10.0 mi Calm Calm - N/A   Clear
9:55 PM 28.4 °F 24.6 °F 19.4 °F 69% 30.09 in 10.0 mi SW 3.5 mph - N/A   Clear
10:15 PM 30.2 °F - 19.4 °F 64% 30.09 in 10.0 mi Calm Calm - N/A   Clear
10:35 PM 28.4 °F - 19.4 °F 69% 30.09 in 10.0 mi Calm Calm - N/A   Clear
10:55 PM 30.2 °F - 21.2 °F 69% 30.09 in 10.0 mi Calm Calm - N/A   Clear
11:15 PM 28.4 °F - 21.2 °F 74% 30.09 in 10.0 mi Calm Calm - N/A   Clear
11:55 PM 26.6 °F - 19.4 °F 74% 30.09 in 10.0 mi Calm Calm - N/A   Clear